GFSSW_500_spd_000.txt.gz
Wind_Speed
19 18 26 30 26 24 18 16 16 17 20 19 23 24 23 22 19 19 21 21 19 16 15 17 14 13 14 12 12 23 13 7 5 4 11 9 10 9 12 14 12 11 17 21 22
20 33 32 30 27 23 24 25 24 23 21 20 23 25 24 26 27 30 27 28 27 24 19 21 22 17 15 10 7 19 7 12 7 7 10 12 8 11 11 15 17 12 17 19 22
34 36 32 29 29 30 28 28 27 26 24 20 21 22 23 24 30 29 29 27 28 29 28 28 29 26 23 17 15 12 10 5 4 5 5 6 7 7 8 11 11 12 7 8 9
40 34 32 32 30 27 26 25 25 25 23 20 19 20 21 20 26 23 23 24 23 24 22 25 30 30 26 23 22 23 18 20 18 15 13 13 12 11 11 12 13 14 12 12 12
37 32 32 31 27 27 26 25 25 24 22 20 16 14 17 20 20 18 20 20 19 20 23 21 21 20 16 15 16 14 13 10 9 8 8 7 6 6 7 8 10 11 11 11 11
36 32 32 29 26 25 25 25 23 22 21 18 16 13 12 19 11 13 16 16 17 19 17 16 16 15 14 13 12 10 8 7 5 5 6 7 8 9 8 9 10 10 10 10 11
32 30 29 25 21 19 18 20 21 19 18 17 15 13 15 17 13 14 14 14 15 16 15 14 13 10 11 10 10 8 5 4 6 7 8 9 8 7 12 11 12 13 13 14 15
31 28 25 21 18 16 15 14 16 16 16 16 15 13 15 12 11 11 10 11 11 10 10 10 11 10 12 10 7 9 10 10 15 13 10 10 12 13 15 13 11 11 12 14 17
29 26 23 18 13 10 9 9 8 10 12 14 13 11 11 9 8 6 6 7 7 7 8 9 7 8 5 10 13 14 13 11 12 14 12 12 12 12 15 17 18 16 16 14 12
26 24 20 15 11 8 7 7 5 4 5 7 10 10 10 8 7 6 5 4 5 6 7 5 7 5 14 9 8 9 10 12 12 13 15 13 11 9 11 17 19 18 18 15 14
24 23 20 17 13 11 10 7 5 2 2 1 5 8 11 10 8 7 7 4 4 5 7 7 7 9 7 6 5 5 6 6 8 10 13 15 13 12 13 16 14 12 16 16 17
21 21 20 20 18 16 13 12 10 6 6 7 7 10 13 14 11 10 8 7 5 7 8 7 6 7 8 8 9 7 6 6 9 11 11 15 16 14 15 17 15 15 16 18 19
22 21 21 20 19 18 17 15 15 13 11 11 12 15 16 15 13 12 10 8 8 7 8 11 10 9 10 11 10 12 9 8 9 11 14 12 19 23 18 18 17 18 21 21 22
20 23 22 23 22 21 20 19 18 17 18 16 18 20 20 15 13 12 11 10 9 10 11 12 12 12 10 12 12 15 14 13 12 15 15 17 12 18 28 21 20 21 22 26 28
21 22 23 24 25 24 24 24 23 21 23 21 19 17 14 14 13 13 12 11 12 13 15 14 16 16 14 12 15 15 17 17 16 16 16 18 19 18 25 29 28 30 30 31 35
8 15 21 21 22 23 23 23 23 22 22 21 15 14 15 17 18 16 15 14 15 16 17 20 19 19 16 16 14 16 16 20 21 21 19 20 19 13 17 29 34 36 41 43 41
7 7 9 16 17 18 18 18 17 19 18 15 15 16 18 18 20 21 21 20 19 20 19 24 22 16 19 17 17 16 20 21 22 23 23 27 30 28 21 29 32 42 46 46 45
7 7 9 10 12 15 17 17 18 18 18 19 20 21 22 22 22 24 24 25 22 24 24 22 29 22 16 18 19 19 24 26 28 29 28 24 32 26 33 36 45 51 50 58 57
7 6 8 9 12 15 18 21 22 24 24 25 25 24 24 24 26 26 24 26 25 24 25 23 24 22 17 21 22 24 26 29 33 34 38 36 36 32 28 34 46 47 55 61 60
8 7 6 8 8 10 14 18 19 21 24 24 22 19 21 20 22 21 24 20 24 23 24 22 18 21 24 24 24 25 29 32 37 40 44 42 38 34 34 37 39 42 47 55 59
10 9 9 9 10 9 12 13 14 14 14 15 15 15 17 17 17 18 18 17 22 21 20 19 20 22 27 28 29 31 31 35 38 39 45 48 43 40 36 41 45 51 55 58 63
12 10 10 12 13 13 11 12 12 11 12 11 12 13 16 17 17 17 18 18 18 18 19 19 22 23 27 30 33 33 32 34 41 44 44 45 45 35 41 48 53 54 59 62 62
13 12 12 12 14 15 14 14 15 14 15 15 15 16 17 18 18 18 20 19 21 23 25 26 30 31 30 39 40 37 32 34 41 49 50 52 50 41 45 48 53 58 62 60 63
15 14 14 14 14 15 15 16 16 17 18 19 20 22 22 22 21 22 23 23 25 28 30 32 30 34 34 36 43 43 37 32 37 46 50 53 56 54 51 56 58 59 63 62 61
16 15 16 17 17 17 17 18 20 21 21 22 24 24 24 24 25 26 28 28 29 31 33 35 33 37 35 38 44 47 44 39 38 40 50 53 53 54 57 60 65 63 64 64 64
17 17 17 17 19 21 21 21 22 21 24 26 29 29 29 30 30 30 31 33 32 35 39 43 41 43 42 37 46 51 45 48 51 51 53 55 58 55 59 65 67 63 64 63 62
22 21 20 20 20 23 24 25 26 26 26 29 29 30 30 30 33 33 34 34 35 37 38 42 45 49 53 48 51 51 54 50 55 56 54 57 58 62 66 66 65 64 62 63 65

GFSSW_500_spd_003.txt.gz
Wind_Speed
21 23 24 28 27 25 21 18 21 18 20 21 21 21 22 24 24 27 24 20 18 17 14 16 17 16 17 16 22 18 12 12 5 8 8 3 6 2 9 11 10 15 16 15 13
21 29 34 32 28 23 22 24 23 19 21 25 27 31 29 28 27 27 28 30 26 21 20 16 15 17 15 11 7 4 8 1 4 5 7 8 7 7 5 5 5 5 9 12 12
34 37 35 31 31 31 29 26 23 21 22 24 26 26 25 26 25 27 27 29 30 30 27 23 23 26 21 18 16 16 8 9 8 8 11 16 13 13 14 14 12 14 12 11 13
38 37 36 37 35 32 30 28 25 23 22 22 23 21 20 21 26 24 23 23 24 25 20 20 21 26 22 19 17 18 17 13 11 10 8 8 10 11 11 11 11 12 11 10 10
38 37 37 33 31 30 29 28 26 24 21 19 19 19 18 19 20 20 20 19 18 19 17 18 19 20 18 14 15 14 10 8 10 8 7 10 11 9 10 11 10 10 11 11 11
38 38 34 32 31 30 29 27 26 24 20 17 15 13 13 17 13 14 15 14 14 16 16 16 17 16 14 13 13 10 8 6 6 6 6 8 7 9 9 8 8 10 9 12 13
37 36 33 32 30 29 27 25 23 22 20 17 14 12 13 17 12 12 12 13 14 15 14 15 16 10 13 9 9 6 3 3 3 3 6 8 8 7 5 6 9 11 13 15 14
35 33 29 27 27 26 25 23 22 21 18 16 15 12 11 10 10 10 10 11 11 10 10 10 10 8 8 6 6 2 2 11 9 8 8 7 10 11 12 12 11 10 12 14 16
34 30 26 23 21 18 17 18 18 16 16 15 13 12 9 8 8 6 7 6 7 7 5 6 3 1 1 4 2 7 9 9 10 9 9 9 7 9 12 18 17 13 11 11 11
31 28 24 19 14 11 10 10 10 11 10 11 11 11 11 10 7 6 5 6 5 6 7 6 5 2 6 10 8 9 9 10 11 12 14 13 12 11 12 16 19 15 17 18 17
28 25 19 13 8 7 6 5 3 3 5 5 7 9 11 11 9 8 9 6 6 8 7 7 7 8 8 8 10 10 9 10 11 13 11 15 13 13 13 14 16 16 18 21 23
24 21 19 15 11 8 6 5 5 4 4 4 6 8 12 15 13 11 9 8 7 7 8 9 7 8 9 8 10 10 11 11 12 12 11 14 15 15 11 14 17 15 15 18 18
23 20 18 16 15 13 13 11 10 10 9 7 9 11 15 17 17 12 10 9 8 7 8 10 11 12 12 11 13 17 13 16 14 13 18 18 18 20 19 16 20 23 21 22 25
20 19 19 18 17 17 17 16 15 13 13 13 12 15 18 18 13 11 10 9 8 9 9 11 11 15 16 17 15 16 16 15 17 18 18 24 19 23 27 26 25 24 24 30 33
19 21 20 19 20 20 19 18 18 17 17 17 18 18 18 14 12 11 12 12 10 12 13 11 13 15 17 16 18 20 19 20 17 18 19 21 24 21 29 33 36 36 30 31 41
15 17 18 19 20 20 20 20 18 18 19 19 18 17 13 13 15 17 18 18 15 15 17 16 15 18 19 19 19 17 18 20 23 23 25 25 22 16 28 29 34 40 42 40 49
8 7 8 12 16 17 18 18 17 18 19 16 14 14 13 16 16 20 21 19 20 19 19 21 19 14 19 17 19 17 19 21 22 22 23 28 27 28 28 24 26 33 37 46 49
11 8 7 7 9 13 14 14 13 15 13 15 14 16 17 20 21 24 26 21 20 22 22 21 25 20 17 16 16 20 23 24 26 28 27 23 25 23 29 29 37 39 42 48 49
12 8 7 8 8 10 12 13 14 16 17 19 20 23 25 21 23 23 21 23 20 20 19 18 22 20 15 18 19 23 24 28 31 32 34 31 23 17 29 32 32 36 43 50 52
12 11 7 8 8 8 10 10 12 16 18 20 20 20 20 14 17 17 18 16 16 16 17 17 15 15 18 20 21 21 27 30 33 36 40 39 32 25 30 28 29 38 46 51 52
12 11 10 8 7 8 8 8 9 10 12 12 12 12 12 12 14 16 15 13 15 15 15 16 14 19 21 23 26 29 31 35 36 36 41 46 40 33 36 44 41 49 55 56 62
13 12 11 10 10 10 11 10 10 10 10 9 9 9 10 11 14 16 17 15 14 14 15 18 19 20 26 31 31 30 28 30 38 39 39 44 45 32 40 38 46 49 55 56 58
14 15 13 11 10 11 11 13 12 11 11 12 13 14 15 16 17 19 18 17 20 19 22 23 25 24 24 32 33 29 25 28 35 41 41 47 51 46 40 44 45 52 53 55 56
14 14 14 13 12 11 11 12 14 15 15 16 17 18 19 21 20 22 23 22 23 25 26 28 28 31 31 33 40 40 33 29 34 42 48 48 51 44 41 45 53 56 57 58 58
13 14 14 13 12 11 13 13 14 16 19 20 22 21 22 23 26 27 28 27 29 31 32 32 30 34 30 35 39 42 39 38 41 44 46 45 43 41 45 53 56 58 56 54 56
14 14 12 13 12 12 14 15 16 13 18 18 21 23 22 24 25 26 26 28 29 29 33 38 37 40 37 36 41 46 40 44 45 43 42 42 44 47 50 54 54 49 53 54 56
19 17 17 16 17 17 18 19 20 23 23 24 24 23 24 25 26 29 29 30 31 33 34 37 43 47 48 45 49 45 36 39 42 40 41 46 52 53 49 47 54 58 53 61 67

GFSSW_500_spd_006.txt.gz
Wind_Speed
23 19 25 26 25 26 29 27 22 20 17 17 20 21 20 20 22 22 19 15 13 13 13 16 16 18 14 13 5 2 6 9 8 6 5 3 2 5 10 7 8 6 4 4 7
27 26 27 29 32 33 32 27 26 27 27 30 29 26 25 24 25 28 26 21 17 16 14 15 14 11 11 7 6 6 9 9 5 9 10 13 13 8 13 13 13 13 12 12 11
25 28 34 35 35 36 31 26 27 29 29 26 25 26 25 24 24 23 25 27 26 22 21 19 17 16 20 20 11 17 20 16 14 14 15 14 12 13 12 11 11 9 9 8 9
32 36 37 37 37 34 31 27 27 27 25 25 22 22 22 22 24 21 22 22 23 22 22 20 22 19 21 19 18 16 13 13 10 9 10 11 10 10 9 10 9 9 9 9 9
39 39 39 38 35 33 31 28 26 23 22 20 19 19 17 20 18 20 20 17 19 17 17 17 18 17 17 16 14 10 10 9 9 9 7 7 7 9 10 9 11 13 13 12 13
40 40 38 36 34 32 29 27 24 21 19 18 17 15 13 16 13 14 16 15 12 12 13 16 15 13 14 14 13 11 8 7 5 4 5 5 7 6 9 12 10 11 14 16 16
39 37 36 36 34 31 29 26 25 21 16 15 13 11 13 15 14 13 13 10 12 10 10 11 13 10 9 9 11 11 7 4 3 2 1 4 4 3 3 7 10 12 13 15 17
37 36 36 35 33 30 27 24 23 21 18 16 13 10 9 10 10 9 8 7 8 7 7 7 8 8 7 4 5 4 2 4 4 2 2 5 8 8 5 5 10 10 9 10 13
37 35 34 33 31 29 27 25 22 19 17 14 14 11 8 7 7 5 5 6 6 7 5 5 7 5 7 7 1 2 3 6 4 5 3 3 4 7 11 13 14 13 9 9 10
34 32 30 27 25 24 22 19 18 16 15 14 11 11 10 8 8 5 6 6 7 9 10 9 3 3 5 6 7 9 8 9 9 6 8 6 7 8 11 13 14 16 15 15 17
30 26 26 23 19 15 13 14 10 11 9 9 7 7 9 10 8 8 6 7 6 6 5 6 4 5 6 10 10 10 11 11 12 11 9 12 14 11 14 14 15 16 18 19 22
29 25 21 16 12 9 8 7 4 3 3 2 3 5 8 12 11 9 6 6 5 6 5 6 9 10 11 10 12 10 12 14 16 17 13 13 16 18 16 14 18 23 24 26 27
27 24 20 17 14 12 9 8 6 7 6 4 5 7 10 13 14 9 7 6 6 8 7 8 9 10 10 11 12 14 13 14 13 15 22 20 19 19 19 17 18 19 20 22 23
25 22 20 18 16 14 13 12 11 10 11 9 10 11 11 13 14 9 7 8 8 9 8 9 11 13 15 14 12 14 16 16 14 13 17 19 19 20 20 20 23 26 22 23 26
25 23 21 20 18 18 17 17 16 14 15 15 15 14 15 13 12 10 9 11 12 12 12 12 13 15 18 17 14 14 15 16 16 19 18 19 18 19 24 26 28 32 31 32 34
25 23 21 21 21 20 19 19 17 17 18 18 17 16 15 14 12 11 12 12 14 16 17 15 14 16 19 21 17 15 13 17 19 20 19 22 22 25 31 31 33 35 37 42 38
20 18 17 17 18 19 18 18 18 18 17 16 17 16 14 12 15 14 15 18 19 18 17 18 16 18 18 20 17 15 15 18 22 21 23 25 21 29 31 34 35 36 42 40 38
16 14 11 9 9 12 13 14 14 12 11 13 13 14 14 15 18 21 21 19 19 19 18 19 17 17 18 16 14 16 17 18 22 24 21 22 22 26 30 32 34 39 40 44 41
16 14 10 10 9 8 9 10 10 11 13 14 16 17 18 21 23 19 16 17 18 16 14 14 17 16 17 14 15 18 20 24 26 30 28 22 17 22 25 27 35 36 42 46 45
15 15 11 9 10 8 7 7 10 11 12 11 14 15 10 12 10 11 11 13 10 10 10 11 12 14 14 16 18 22 24 31 32 33 34 32 22 26 24 31 29 41 47 45 46
13 14 13 10 10 8 7 8 6 7 8 9 11 12 11 10 10 9 10 12 10 9 10 10 12 17 19 21 23 24 27 31 34 34 36 41 33 26 32 38 43 47 45 48 44
13 13 13 13 12 10 8 9 8 8 8 8 9 9 9 11 12 13 12 13 13 14 14 15 16 21 23 26 27 24 25 30 37 38 37 43 43 35 39 40 47 46 45 45 47
13 14 14 14 13 11 10 9 10 10 10 11 11 12 13 15 17 18 18 18 17 20 22 22 21 21 28 31 32 26 24 32 39 42 43 47 46 39 40 42 45 47 46 48 49
14 15 15 14 12 10 9 7 8 8 10 12 13 14 17 17 18 20 21 20 21 22 23 25 25 26 26 31 36 29 26 31 40 42 48 44 50 40 48 46 47 48 49 47 48
14 13 14 13 11 11 10 10 8 7 8 10 11 12 15 17 19 20 23 25 25 25 26 27 27 27 26 31 36 32 35 37 39 36 41 37 38 41 44 46 48 46 47 54 53
16 14 13 11 12 13 12 10 9 10 11 14 14 17 18 20 20 22 24 25 25 27 29 31 32 37 30 37 41 36 35 37 36 35 39 41 43 44 43 45 48 48 54 53 54
20 17 16 14 13 14 13 13 13 14 15 17 19 23 24 24 24 25 28 28 29 29 29 32 37 40 39 38 39 29 32 34 36 36 41 42 40 38 42 49 49 52 54 50 52

GFSSW_500_spd_009.txt.gz
Wind_Speed
20 17 17 18 23 23 23 25 23 19 14 13 15 15 16 15 14 13 11 9 8 8 7 8 7 4 7 8 5 2 1 10 12 9 6 1 3 7 6 8 8 7 7 12 13
19 18 18 20 25 29 30 28 25 21 23 23 23 24 24 23 22 21 19 16 12 11 11 11 11 12 9 7 3 5 15 17 15 14 15 14 13 13 12 11 10 10 8 9 10
20 18 23 28 30 35 33 30 30 33 31 29 27 24 23 24 24 25 26 22 15 12 12 13 14 13 13 15 14 18 18 19 14 13 13 12 10 9 9 9 9 9 11 11 12
22 22 25 32 37 37 34 33 33 32 29 26 25 23 22 22 23 20 22 21 22 22 21 22 20 20 20 20 16 17 16 15 14 12 10 9 8 7 8 6 5 5 5 6 7
22 25 33 38 38 36 33 31 30 29 25 22 22 21 20 19 17 18 18 18 19 20 18 16 17 17 16 17 14 13 12 11 8 7 7 6 5 5 6 8 10 11 10 10 11
29 32 35 38 37 34 31 28 25 23 21 19 17 16 16 17 13 13 14 15 13 12 11 12 11 10 10 10 10 11 8 10 6 3 4 2 4 6 8 11 13 14 13 11 10
35 38 39 39 36 32 29 25 21 19 17 15 14 13 13 14 13 12 12 12 11 9 7 5 8 9 7 7 8 5 4 3 3 4 4 2 4 1 2 6 9 12 14 14 14
39 39 38 36 32 29 28 25 21 17 15 14 12 10 8 9 9 10 10 8 7 7 5 4 3 5 6 4 5 3 1 1 3 4 5 5 3 3 4 4 8 10 12 11 12
35 34 34 32 30 28 26 23 21 20 18 15 13 11 9 7 7 6 6 5 5 6 5 5 5 4 6 7 4 4 2 5 6 5 4 7 7 8 7 8 10 11 13 13 13
34 33 32 30 28 26 24 22 21 19 17 16 14 12 10 8 5 4 5 5 4 5 5 5 6 6 8 8 5 5 8 7 4 3 6 4 5 6 10 12 13 15 16 17 18
36 34 31 30 28 25 23 22 20 18 16 13 12 9 8 8 6 3 4 5 3 4 4 5 4 4 4 8 7 7 7 10 12 8 9 9 9 11 12 15 17 18 19 21 22
34 33 30 26 23 20 19 13 12 10 8 6 5 3 3 5 5 4 2 3 3 3 2 4 6 6 7 8 9 8 9 9 14 14 11 12 16 16 17 17 21 23 22 20 23
30 27 24 21 19 16 14 12 10 8 6 4 3 3 5 6 8 6 3 2 4 4 5 7 8 8 9 10 12 10 11 11 10 14 13 12 14 18 20 21 22 22 24 27 27
25 23 22 20 18 15 14 11 9 9 10 9 9 9 8 9 10 7 5 5 5 6 7 9 11 13 12 12 11 13 14 14 13 12 12 15 15 20 20 21 23 25 27 27 29
27 25 24 22 19 18 16 15 14 14 15 15 15 13 13 13 12 10 7 9 10 12 13 13 14 15 17 16 12 13 16 15 13 14 17 16 20 23 22 25 25 26 27 30 28
28 26 25 23 21 21 20 19 18 18 20 18 17 18 18 16 13 10 10 11 13 15 15 16 17 18 21 22 16 15 14 13 14 16 19 20 22 24 27 28 30 31 32 33 34
28 27 25 24 23 22 22 22 21 21 19 19 18 18 17 16 11 10 12 16 19 20 20 18 18 19 22 23 22 19 15 15 17 17 20 23 26 28 30 32 30 31 36 38 41
29 28 25 23 22 21 20 19 19 17 18 18 17 14 13 12 13 15 17 21 19 19 19 20 19 20 22 20 20 17 15 16 20 22 22 27 28 27 31 37 37 41 41 42 45
28 25 21 18 16 13 12 12 12 14 14 14 14 14 14 18 17 20 18 13 14 16 16 16 15 16 17 18 19 18 19 22 26 28 28 25 21 25 31 36 44 44 47 49 49
24 22 18 15 13 12 11 10 9 9 10 13 14 13 14 14 9 7 10 9 9 11 10 11 12 13 13 15 18 20 24 27 31 33 35 33 22 26 32 41 41 47 50 49 48
20 20 18 13 13 12 11 9 7 7 8 9 9 9 11 11 9 8 10 10 10 11 11 12 14 17 17 18 20 23 27 31 34 35 37 42 33 32 37 43 44 43 42 41 43
14 16 16 16 14 13 11 10 9 7 7 8 7 8 9 9 10 11 13 14 15 16 15 15 18 20 21 22 21 25 28 32 37 38 37 42 38 37 41 42 37 38 40 43 46
12 12 14 16 16 15 13 11 9 9 9 8 7 8 10 12 14 15 17 19 20 22 21 21 21 23 25 25 22 23 29 35 40 42 41 43 40 36 39 40 41 43 45 46 45
13 12 13 15 14 13 12 10 9 9 9 8 8 9 11 13 15 17 19 20 21 22 23 23 23 24 27 29 26 22 27 34 40 40 42 34 39 36 40 41 41 41 44 50 52
14 12 13 14 14 13 12 11 10 10 8 6 6 9 12 14 16 17 19 20 22 24 26 26 24 25 26 30 32 26 30 31 33 32 37 34 35 39 42 41 44 47 52 54 53
17 13 12 13 14 13 13 11 10 10 9 9 10 11 15 18 21 24 25 26 26 28 30 29 31 31 26 36 36 28 29 35 33 32 37 40 42 44 43 46 47 48 50 53 56
21 18 15 15 15 14 13 13 12 13 13 14 16 19 21 23 22 21 26 29 32 32 30 31 36 39 33 33 34 24 30 34 35 36 40 44 44 43 42 46 48 48 52 54 54

GFSSW_500_spd_012.txt.gz
Wind_Speed
20 15 19 20 19 19 19 21 21 19 18 11 9 9 8 8 6 4 4 5 7 7 7 5 5 6 12 12 9 5 1 6 10 9 4 7 9 15 15 14 15 15 12 11 9
16 16 15 16 18 20 23 23 20 19 17 18 17 15 13 14 16 16 16 14 16 16 16 17 13 13 11 10 4 4 8 11 12 13 13 15 14 13 12 10 10 10 11 10 9
17 15 15 18 20 21 21 22 25 25 25 25 24 23 23 23 23 21 21 18 17 15 18 16 14 15 15 16 16 18 18 19 18 15 14 13 12 10 7 7 7 8 7 6 6
15 15 18 17 19 20 27 29 31 31 29 26 24 22 22 24 23 23 23 22 19 19 22 17 21 19 21 20 19 16 17 15 13 12 12 10 9 8 4 4 5 7 8 9 9
12 17 15 18 23 31 33 34 33 30 27 25 23 21 19 19 18 20 20 20 20 18 19 19 18 18 19 19 17 15 15 13 12 10 7 8 6 4 3 5 6 7 9 10 11
17 15 17 25 35 37 36 33 30 27 25 23 20 19 19 18 16 17 15 15 15 13 14 12 12 10 9 8 7 7 7 6 6 6 5 4 4 6 7 7 7 10 10 9 10
18 22 30 36 38 35 32 29 25 23 20 18 15 15 16 16 15 14 14 13 12 11 10 8 6 6 6 6 8 6 5 3 2 4 4 4 6 6 5 6 7 8 10 12 13
29 33 36 38 36 32 28 25 21 18 16 15 14 12 12 12 12 12 12 11 10 8 7 5 4 4 4 3 2 1 1 1 2 4 6 6 3 2 5 9 8 8 10 11 12
35 37 38 36 33 30 27 24 20 18 16 14 12 11 11 10 10 10 9 9 8 6 5 5 5 5 4 6 4 4 5 4 7 8 7 7 8 8 9 10 10 10 12 14 16
37 38 34 31 28 26 24 22 20 19 17 15 13 11 10 9 8 7 7 7 6 3 2 4 5 5 5 6 5 5 6 7 7 6 6 4 5 7 9 13 16 16 17 19 21
35 32 30 29 28 26 23 21 19 18 16 14 13 11 9 8 6 3 3 3 3 1 2 1 4 2 4 5 5 6 7 6 5 4 7 7 11 12 14 17 18 18 21 25 25
33 31 29 27 26 24 22 19 17 15 13 11 9 6 4 4 4 2 2 2 1 2 4 3 3 3 4 5 7 7 8 8 10 8 6 9 13 15 17 19 21 23 24 25 25
30 29 28 27 25 23 18 16 14 10 8 5 5 3 2 2 4 5 3 4 3 4 5 6 7 6 7 8 11 9 10 10 10 14 11 12 15 17 17 18 19 22 24 26 27
31 29 27 24 21 18 16 14 14 12 9 7 8 8 8 6 7 6 5 6 5 5 7 8 10 11 12 12 12 15 15 14 15 13 12 16 19 19 21 21 23 25 27 27 28
29 28 25 22 19 18 16 15 14 14 12 14 14 13 13 12 12 11 8 8 9 8 10 12 14 17 17 15 15 16 18 18 16 14 14 16 18 20 23 25 28 30 31 32 33
27 25 24 21 20 19 18 17 17 17 19 16 16 16 15 16 15 13 12 11 13 12 14 16 17 19 21 20 18 18 18 17 16 16 16 18 20 22 27 31 34 35 36 35 36
28 25 23 22 23 22 22 21 21 22 20 19 19 18 16 15 14 13 12 13 16 19 20 19 19 21 22 22 21 19 19 17 16 17 19 21 24 29 30 34 34 36 37 39 38
29 28 26 25 24 23 23 23 23 22 21 21 20 18 14 13 12 13 15 17 20 21 19 18 19 20 20 20 19 18 16 17 20 21 23 27 29 33 32 35 38 40 41 41 42
31 28 27 26 25 24 23 20 20 19 19 19 16 14 13 13 14 16 18 18 13 14 14 13 13 14 15 15 17 17 18 20 23 26 26 28 27 33 34 37 38 39 40 42 44
30 29 28 25 22 20 17 15 13 12 12 13 13 13 13 12 10 9 8 10 11 12 12 13 13 12 12 15 16 19 22 25 27 31 32 30 21 26 37 40 37 37 39 40 42
29 27 23 20 18 17 15 13 9 9 9 8 7 7 9 9 8 9 9 11 14 13 14 16 17 16 17 20 22 23 26 28 29 31 33 35 26 28 30 33 33 33 35 37 41
24 23 22 21 18 17 14 11 8 8 5 5 7 6 6 7 8 10 13 15 17 17 19 19 21 22 22 23 24 24 27 30 33 35 33 34 30 31 34 32 33 36 40 42 41
20 19 20 20 18 16 13 11 10 9 8 7 8 9 8 9 10 13 14 16 18 21 22 21 22 23 23 24 26 27 27 30 35 37 37 37 34 31 36 38 40 42 44 44 45
18 15 15 15 15 14 13 13 11 10 10 10 9 9 8 8 11 13 15 17 19 20 22 23 24 26 27 27 26 26 29 34 39 40 42 34 39 33 37 39 42 43 45 49 53
17 16 15 14 14 13 12 12 12 11 11 10 9 8 7 9 12 16 19 21 22 24 27 28 28 31 31 31 30 27 30 34 39 39 41 39 39 40 42 45 47 45 50 56 60
17 16 14 13 13 12 13 13 12 12 11 10 10 10 10 14 16 18 20 22 26 30 33 34 34 33 32 35 36 30 33 37 35 35 38 42 41 43 44 45 47 50 56 58 61
20 18 15 14 13 13 14 14 13 12 12 12 14 16 17 19 21 23 26 29 32 35 39 41 40 39 32 35 34 28 30 36 36 36 38 42 43 45 45 49 51 53 57 60 64

GFSSW_500_spd_015.txt.gz
Wind_Speed
21 19 18 22 19 23 28 27 21 16 19 16 12 11 10 8 6 6 7 8 9 8 10 13 14 15 17 16 10 7 4 2 6 7 6 14 16 15 13 13 12 12 9 8 7
13 17 16 18 22 17 21 20 17 16 15 14 10 9 10 12 13 13 15 17 17 19 20 16 17 16 13 12 7 5 6 9 7 10 17 15 13 12 12 11 11 10 8 7 4
12 14 12 14 14 14 17 16 14 18 19 18 18 19 19 18 18 19 20 22 21 22 22 16 17 15 13 12 11 11 13 13 17 17 15 13 11 10 10 10 8 6 4 3 5
14 14 13 11 14 15 15 16 22 25 28 28 27 26 24 22 22 21 21 21 21 20 19 16 18 18 19 18 18 20 19 18 16 14 12 10 6 6 5 6 6 5 3 2 3
13 12 12 12 14 16 18 27 31 33 31 29 29 25 24 23 21 20 22 22 21 19 19 21 22 20 17 16 14 14 14 14 12 10 8 7 5 2 2 4 4 4 1 3 6
13 12 10 14 16 25 33 36 36 33 30 27 24 22 23 24 21 21 20 20 19 17 16 14 12 9 10 10 11 11 12 11 10 11 9 6 3 3 3 3 3 4 6 6 6
12 10 12 18 32 39 40 37 34 30 27 24 22 22 21 21 18 19 17 16 16 15 13 12 10 9 8 6 7 7 6 9 10 10 6 3 1 2 6 9 8 9 10 11 9
12 15 24 39 42 40 36 32 29 26 23 22 21 20 19 19 17 16 15 14 13 12 11 9 7 7 6 4 3 3 2 2 1 3 4 3 3 3 8 10 9 10 11 13 13
22 30 41 41 38 35 33 30 27 24 22 20 19 19 18 16 15 14 13 12 11 11 9 9 7 6 5 4 2 0 3 5 5 5 7 7 6 6 7 9 9 12 14 17 16
34 38 40 38 35 32 30 28 26 24 22 19 17 16 15 14 12 11 11 9 8 7 6 6 6 6 5 4 2 2 3 5 6 8 7 6 9 6 10 11 12 15 16 18 19
38 39 38 35 32 29 28 26 23 21 19 17 17 14 12 11 9 8 7 6 5 3 2 2 2 2 3 3 2 4 4 5 4 6 10 9 11 12 14 16 16 16 18 19 20
36 35 32 31 31 29 27 24 22 19 18 15 13 10 9 8 6 3 2 3 3 2 1 1 1 1 2 4 4 6 6 7 7 6 8 10 11 11 13 15 17 18 19 22 24
34 33 32 31 29 26 24 22 19 15 12 9 6 4 2 2 3 3 2 3 4 4 3 2 3 5 7 8 9 8 9 9 10 11 10 11 13 14 16 18 20 21 23 25 27
34 33 32 29 26 23 20 18 15 11 8 6 4 3 3 4 5 5 5 5 6 7 7 6 8 9 10 11 12 13 14 13 12 14 14 15 15 16 18 17 19 22 24 28 29
33 31 29 26 23 19 15 13 11 10 9 9 8 8 10 11 10 11 9 9 9 10 10 11 12 13 13 14 15 17 17 17 15 15 16 16 18 18 20 21 23 26 29 30 28
30 29 26 23 19 16 13 12 12 13 14 10 11 12 13 13 14 14 13 12 12 12 13 14 16 17 17 16 16 18 19 19 18 16 16 18 20 21 23 26 28 28 28 29 31
29 27 25 22 19 17 16 16 16 18 16 16 15 16 15 14 14 14 14 13 13 15 17 19 19 19 18 18 18 18 17 19 19 18 17 19 23 25 26 29 31 32 33 33 35
28 26 25 23 19 17 18 18 20 21 21 20 18 17 16 15 13 12 12 13 15 17 18 14 15 15 16 17 17 16 15 16 18 19 20 22 28 27 29 29 32 35 35 37 37
29 26 23 22 20 20 20 20 21 21 19 18 18 17 14 12 12 11 13 14 12 9 11 11 11 12 13 13 14 14 15 17 20 21 23 23 27 28 29 33 34 35 38 38 40
30 28 26 24 22 21 20 21 18 15 13 12 12 11 11 11 10 7 8 9 9 10 11 12 12 13 14 15 17 19 20 22 24 25 27 24 21 28 29 34 36 34 36 34 35
32 29 26 24 23 21 20 16 12 10 8 8 8 8 7 7 7 7 8 9 10 12 13 14 16 18 19 20 20 21 23 25 26 28 31 32 18 29 31 32 33 32 35 36 39
32 29 26 24 20 18 15 14 12 9 7 5 6 6 5 5 5 5 8 11 12 14 16 17 18 19 21 21 23 24 26 28 30 31 32 35 25 30 34 33 32 34 37 41 44
31 27 23 20 18 17 14 14 14 10 10 9 8 7 6 6 6 6 7 9 12 15 16 18 19 21 23 24 25 26 27 29 31 35 33 37 33 31 36 35 38 40 43 45 46
27 22 19 19 19 18 15 15 14 12 12 11 9 8 6 3 3 5 8 11 12 14 17 20 23 25 26 28 30 30 32 34 37 39 41 34 37 31 35 38 38 41 45 47 51
24 22 19 17 17 16 15 14 13 12 11 10 9 7 5 4 6 10 13 15 17 21 25 28 29 30 32 32 32 31 33 37 39 41 42 38 37 39 40 41 43 44 48 52 56
24 22 18 15 13 14 14 14 13 13 12 11 8 7 8 9 12 15 19 20 22 25 31 35 37 38 35 37 34 28 31 35 37 38 38 41 40 42 44 47 49 51 53 55 59
23 21 18 15 15 15 15 15 14 13 12 11 11 11 12 14 17 20 23 25 25 27 35 39 44 46 39 37 34 30 31 35 36 36 38 41 43 44 46 49 52 54 57 62 65

GFSSW_500_spd_018.txt.gz
Wind_Speed
15 18 21 21 21 19 23 26 23 25 23 19 20 16 14 12 12 12 13 13 14 13 10 14 15 15 15 14 14 14 7 6 8 10 9 13 18 14 13 13 13 10 9 7 7
18 20 23 20 21 21 21 27 27 22 19 17 13 12 12 12 11 12 13 13 12 15 20 20 18 17 14 12 10 11 9 11 12 15 19 16 14 13 13 12 11 9 7 5 5
14 14 16 18 22 20 21 22 20 18 13 14 16 20 19 17 16 17 19 20 24 23 22 19 19 17 14 11 9 12 14 14 15 19 15 14 13 11 10 9 7 5 3 1 1
11 15 16 16 16 16 15 18 18 16 19 23 24 22 21 20 21 26 27 27 25 22 22 19 17 15 13 12 13 17 18 17 16 14 11 9 8 7 6 6 6 5 2 1 3
15 17 19 17 17 17 20 22 19 25 28 30 29 27 27 24 22 22 22 21 20 19 20 19 18 16 15 16 17 16 14 14 13 12 9 7 7 5 5 3 2 2 4 4 5
17 17 20 20 20 21 20 26 33 37 37 34 32 29 28 27 25 24 24 22 21 21 20 19 17 15 14 14 14 15 15 13 11 12 10 7 6 7 6 6 5 4 4 5 6
15 14 17 20 20 25 33 38 40 37 34 34 32 30 28 27 23 21 21 19 19 19 17 15 14 13 13 12 11 11 9 8 9 9 8 7 6 6 6 5 3 7 9 8 10
14 16 18 24 33 40 41 40 37 36 34 32 29 27 26 24 22 20 18 17 16 16 15 13 11 10 8 7 6 7 6 5 9 10 7 5 7 7 7 8 8 9 11 12 13
16 21 31 40 43 42 40 37 36 33 30 29 27 25 23 21 20 18 15 14 14 12 11 10 9 8 5 4 3 3 3 4 4 5 5 7 8 7 10 11 8 11 12 12 12
28 37 44 44 43 40 37 35 32 29 28 26 23 22 20 18 18 16 15 15 14 12 9 9 8 7 6 6 6 4 4 5 6 8 9 10 10 8 11 9 12 14 14 13 14
40 43 43 42 39 36 34 32 29 28 26 23 22 19 17 15 14 12 10 9 10 10 9 9 7 7 7 7 5 3 3 4 7 9 11 12 15 12 14 15 14 14 15 15 16
42 42 41 38 35 33 32 30 28 25 25 23 19 16 13 12 9 7 6 6 6 6 5 5 6 7 6 4 3 4 5 7 7 8 11 11 12 12 12 13 15 15 17 19 22
40 38 37 35 33 32 30 28 25 23 19 17 14 11 8 7 6 4 1 4 4 4 5 6 7 7 6 6 8 8 8 9 11 11 13 14 15 14 14 15 17 18 19 22 25
38 36 34 33 31 30 28 24 21 18 15 10 8 5 3 1 1 1 2 4 6 6 7 8 8 8 9 10 11 12 12 12 12 14 15 14 17 15 16 18 18 20 22 25 27
35 35 34 33 30 28 25 20 16 13 10 5 4 3 4 6 7 8 8 7 8 9 10 10 11 11 13 14 15 16 16 16 15 15 16 15 16 16 18 19 21 23 27 29 31
36 35 34 31 27 24 20 16 11 9 6 3 5 7 8 10 11 12 12 11 11 12 13 13 15 16 18 18 18 18 18 18 19 18 17 17 18 21 20 22 26 30 31 33 34
37 34 32 28 23 18 15 12 11 10 7 9 11 12 13 14 13 13 13 13 12 13 13 15 18 18 18 19 20 19 17 18 18 18 18 18 21 22 25 27 29 32 33 35 36
34 32 29 26 22 18 16 13 13 12 14 15 17 17 15 14 13 11 10 10 11 12 14 13 11 11 11 13 14 14 13 14 16 18 20 20 24 25 28 29 31 33 35 37 38
32 30 27 24 21 19 16 14 14 16 17 18 16 14 14 12 10 10 10 9 8 4 5 6 8 8 9 10 11 12 14 15 17 19 21 23 24 25 28 30 32 33 36 36 35
32 29 26 23 21 19 17 16 17 17 15 13 12 11 10 10 9 7 5 4 4 4 6 7 9 11 12 13 15 16 17 19 20 22 22 22 27 25 28 33 33 34 34 35 35
32 29 26 24 22 20 18 17 16 12 9 9 9 9 8 6 4 4 2 2 4 7 9 11 13 14 16 17 18 19 21 22 24 25 27 27 23 29 35 35 37 34 33 33 37
33 30 27 24 22 21 18 16 12 11 10 8 6 7 6 4 2 1 2 4 5 7 9 12 14 17 19 21 22 23 24 27 29 31 31 32 27 30 37 38 35 34 34 38 40
34 31 28 26 23 20 16 14 13 14 12 10 8 7 5 4 3 1 0 3 6 7 9 13 17 20 22 23 25 27 28 29 31 33 31 35 32 36 38 36 36 35 39 42 45
35 32 30 26 22 17 16 14 14 15 14 12 10 8 5 5 5 3 2 4 6 8 12 17 22 23 27 29 30 29 29 30 32 34 36 32 36 31 35 35 37 40 43 46 50
35 32 28 24 20 18 19 18 17 17 15 13 10 9 8 8 7 6 6 9 12 15 18 21 24 27 31 32 31 28 30 32 32 33 36 32 31 35 34 36 39 41 44 49 53
34 31 26 23 20 19 19 19 18 17 15 13 12 10 10 10 10 11 12 13 16 19 23 26 30 33 33 35 34 29 31 31 33 35 35 34 33 33 37 38 41 46 50 54 59
33 29 26 23 20 18 18 18 17 16 16 14 13 13 13 12 13 14 15 17 19 22 27 30 36 39 39 41 34 30 28 28 28 31 32 33 35 37 40 43 47 53 56 60 64

GFSSW_500_spd_021.txt.gz
Wind_Speed
18 16 16 21 23 20 19 22 21 22 21 23 24 19 18 17 17 17 16 14 11 11 11 11 13 14 16 15 14 14 11 9 7 7 9 9 11 9 8 10 11 9 7 7 8
20 19 18 21 22 21 18 19 20 23 25 22 17 15 15 17 18 17 14 12 11 12 14 16 15 14 13 13 14 14 5 14 14 12 14 16 15 12 12 12 11 10 8 8 7
22 20 24 23 23 19 22 19 25 24 19 14 13 17 17 17 16 15 15 16 18 19 19 19 18 17 15 13 13 17 16 14 19 20 19 16 13 11 10 9 8 7 6 6 4
17 21 20 21 23 21 20 16 18 17 16 13 19 19 19 19 20 18 21 23 25 22 20 19 19 15 8 10 15 15 17 19 19 17 15 13 11 8 8 7 7 6 6 4 3
15 16 18 18 18 17 16 16 17 16 17 19 23 22 22 19 21 25 25 25 23 20 22 19 14 12 9 12 14 16 17 15 14 11 10 10 10 8 8 9 7 6 4 6 7
14 16 16 18 19 17 18 19 19 19 23 25 25 23 23 27 23 22 19 18 18 20 17 18 20 20 18 16 13 12 12 11 10 10 9 8 8 7 7 6 5 5 5 5 6
16 16 22 21 21 22 21 21 25 30 33 33 32 31 29 29 24 24 23 23 22 22 24 20 19 19 15 12 10 10 8 4 4 6 6 5 6 9 8 8 6 5 6 7 8
19 13 20 24 24 23 26 35 40 39 37 35 33 32 31 27 25 23 22 20 19 18 16 15 15 15 14 11 10 8 5 3 6 10 8 7 3 9 11 9 5 7 8 9 12
17 16 23 25 27 34 42 42 41 39 36 34 33 30 28 25 23 20 19 18 16 15 13 13 12 11 10 7 5 2 2 7 7 9 11 7 9 13 13 12 10 12 11 14 16
19 21 28 35 41 44 42 40 38 36 34 31 29 28 23 23 22 20 18 17 15 13 12 11 10 8 6 4 3 11 7 8 9 9 9 9 12 13 12 14 14 15 16 16 17
27 34 41 43 42 41 40 38 35 32 29 27 25 22 21 18 16 14 13 13 12 11 10 9 9 9 8 7 7 9 9 9 10 11 11 12 16 16 16 19 18 18 18 19 21
38 43 44 42 41 40 38 34 33 29 26 25 22 20 18 15 14 11 10 10 9 9 8 7 8 9 9 9 9 9 9 10 10 10 12 13 17 15 16 18 17 18 20 21 24
43 43 41 39 38 36 33 30 28 25 24 22 19 17 14 12 9 7 6 7 8 8 9 10 8 8 8 9 10 11 11 11 12 12 13 15 20 20 19 19 20 21 23 23 24
43 42 39 37 35 33 32 29 28 26 21 17 15 12 9 7 5 4 3 2 5 6 7 8 8 9 10 11 12 15 14 14 14 13 10 10 11 24 21 21 22 23 23 24 27
41 39 36 35 34 32 29 26 23 21 18 12 9 6 3 1 1 3 3 3 5 7 9 9 10 11 13 14 15 17 17 17 17 17 16 15 13 31 24 23 24 25 26 28 31
40 37 36 34 32 30 27 22 18 15 10 7 4 1 3 5 7 7 7 8 8 9 12 13 14 15 17 19 21 21 20 19 19 18 18 19 12 17 29 22 26 29 30 33 36
38 35 34 32 31 27 22 18 14 9 4 3 3 6 8 10 10 10 10 9 9 11 12 13 14 17 16 15 16 17 17 17 16 16 11 16 16 29 27 28 30 33 34 36 38
37 35 35 32 29 24 19 14 9 5 6 7 10 12 13 12 11 10 9 8 8 9 11 13 10 10 9 9 9 9 10 11 13 15 14 19 19 29 26 30 31 33 36 38 38
37 37 35 31 26 21 17 15 10 10 11 13 14 13 11 11 10 8 8 8 7 6 6 6 7 8 9 10 11 12 13 14 16 17 19 21 28 29 31 32 33 34 35 36 38
38 36 33 28 25 21 17 14 13 13 14 14 12 10 10 7 7 7 6 5 5 4 4 5 7 10 12 13 13 16 17 18 19 22 22 13 21 23 32 35 36 34 34 37 37
37 34 31 28 24 21 18 16 15 14 13 9 8 8 7 7 5 5 5 5 4 3 4 5 8 10 12 12 16 17 17 20 22 23 26 27 21 31 35 35 36 38 35 37 37
36 32 30 27 24 21 20 17 15 14 10 8 6 6 6 6 5 6 5 3 1 1 3 5 8 11 13 15 17 18 21 23 24 27 28 28 24 34 34 39 37 34 34 33 37
36 33 30 27 24 22 20 18 17 13 11 9 8 5 5 6 7 6 5 4 2 1 2 7 10 13 19 20 22 23 26 27 28 28 25 32 24 35 34 36 35 37 35 40 43
37 34 31 27 24 23 21 19 16 14 13 12 10 8 8 9 8 8 6 4 4 5 7 11 15 18 22 26 30 34 35 35 32 30 30 25 31 26 31 36 33 35 38 40 43
38 35 31 28 26 24 21 18 18 15 14 14 13 12 11 11 11 10 9 8 7 9 12 15 18 21 25 30 35 37 37 36 34 33 34 26 26 27 29 29 31 36 38 43 49
38 34 33 29 27 24 22 20 20 18 17 17 16 15 15 15 14 13 12 11 11 14 17 19 21 24 26 34 38 38 36 33 32 30 28 27 25 25 26 32 32 38 42 47 51
38 36 34 30 27 24 22 21 20 19 19 19 18 18 17 17 16 15 14 13 15 18 21 24 26 30 32 38 41 40 33 32 28 30 27 26 28 31 34 39 43 48 51 55 60

GFSSW_500_spd_024.txt.gz
Wind_Speed
19 19 19 19 19 20 19 18 23 21 23 21 22 20 17 16 18 17 16 14 13 14 14 15 16 18 17 17 19 19 12 12 10 9 21 10 12 12 12 9 10 8 7 8 7
22 21 20 19 16 21 20 16 18 21 22 18 17 15 17 16 16 16 15 11 11 13 15 17 15 15 17 16 24 24 12 21 21 20 15 12 11 8 8 10 11 9 8 7 6
24 25 24 22 20 21 19 16 17 17 19 19 15 14 13 14 15 15 13 14 17 17 17 17 22 21 17 19 25 9 13 24 21 17 14 15 11 10 9 9 10 9 6 2 2
23 26 23 22 22 23 19 19 17 18 16 12 15 14 15 17 18 13 17 20 22 24 24 23 19 13 10 10 18 12 20 23 19 17 16 14 11 7 9 8 6 4 3 2 4
17 17 21 23 19 24 19 16 15 13 15 15 15 14 18 18 16 21 23 26 24 25 23 22 10 8 6 7 8 14 14 14 16 15 11 8 9 8 7 6 5 6 3 3 4
22 20 19 18 19 19 17 15 15 15 17 17 17 20 21 19 24 24 26 26 28 21 19 23 16 17 8 9 4 11 14 15 13 10 9 7 6 7 6 5 5 6 6 5 6
14 14 14 14 19 21 18 17 17 20 19 20 23 23 20 23 25 21 22 16 15 16 22 14 19 20 17 12 11 10 8 4 2 2 2 5 6 9 6 9 8 6 8 9 9
14 16 18 19 21 21 19 19 21 22 20 22 23 24 22 18 18 20 21 22 21 20 17 18 15 14 14 11 9 7 4 3 0 4 5 6 8 15 8 8 8 9 9 10 16
16 19 21 24 21 21 20 21 23 27 30 30 29 28 28 24 24 22 21 23 20 17 17 16 15 14 12 12 10 8 2 4 13 9 6 6 2 16 13 12 10 11 13 12 16
16 12 23 24 21 22 28 35 38 36 35 31 29 30 27 25 24 22 21 19 19 18 16 15 16 13 11 9 8 7 2 14 14 7 8 8 10 13 13 14 13 13 15 19 23
13 15 24 24 26 35 39 38 35 35 33 33 28 26 24 21 19 18 17 16 14 15 17 12 14 4 15 5 8 15 13 8 11 9 9 11 12 22 12 17 17 19 19 21 28
20 24 30 33 38 40 40 37 37 32 27 25 24 21 21 16 17 15 14 14 13 14 11 8 5 6 10 9 9 17 14 12 13 9 10 14 13 20 13 18 20 19 20 26 27
29 35 38 41 41 38 34 32 32 28 26 22 21 19 17 14 12 11 10 10 11 10 8 7 6 6 7 8 9 12 12 12 13 11 10 13 15 24 19 18 22 24 25 27 27
39 42 42 41 39 37 35 30 29 26 25 22 20 17 15 14 12 9 7 6 5 5 6 4 5 7 8 9 9 15 8 14 14 15 12 11 9 28 24 26 23 25 27 29 30
44 42 41 40 38 35 33 29 28 26 24 18 14 11 10 7 5 3 2 2 4 6 8 7 8 10 12 12 13 17 16 17 17 17 17 16 13 23 31 34 31 25 27 30 33
44 41 39 37 33 32 30 27 25 21 15 14 10 7 5 3 1 1 3 4 6 9 10 10 12 13 14 15 17 19 20 20 20 19 18 11 15 22 17 33 21 29 29 33 36
42 39 38 35 34 31 28 25 21 15 12 9 6 2 1 3 4 5 5 6 7 8 10 10 10 11 13 13 11 12 12 12 10 10 11 15 13 28 28 28 37 39 36 37 38
41 38 36 33 32 30 27 22 17 13 9 4 1 5 7 7 6 6 6 5 5 6 6 7 3 6 6 8 9 9 9 8 9 10 13 15 17 30 26 28 33 37 37 36 35
40 37 35 34 32 28 24 19 15 10 5 4 7 10 9 7 7 6 5 4 4 5 6 5 5 6 7 9 11 11 12 13 15 16 17 14 20 28 29 29 32 35 34 39 37
39 37 35 33 30 27 22 17 11 7 7 8 11 9 6 5 4 4 5 5 5 5 4 3 4 6 7 7 8 12 13 15 18 21 19 10 16 24 35 38 39 39 41 35 37
38 36 35 33 31 26 20 14 11 10 10 11 9 7 5 4 4 4 4 6 6 5 4 2 1 3 5 7 12 16 18 18 20 24 25 23 22 33 36 37 38 44 45 38 33
39 38 37 34 29 24 20 14 11 11 12 11 7 5 5 5 4 5 6 6 6 5 4 3 2 5 8 11 13 16 20 23 24 24 27 28 22 31 32 35 36 39 36 31 33
39 38 37 32 28 24 18 15 14 14 13 10 7 5 5 6 6 7 8 8 7 6 4 2 5 10 14 15 19 27 29 32 31 25 22 28 25 28 28 31 34 38 37 37 37
41 37 35 30 27 23 21 18 17 16 13 12 9 7 7 8 9 9 10 9 8 6 6 7 9 12 15 19 24 29 33 34 34 33 26 21 26 23 23 35 33 33 34 38 40
38 37 34 29 25 24 22 20 18 16 14 14 12 10 10 11 11 12 13 11 10 8 8 11 13 15 18 22 27 32 36 36 32 30 30 21 23 21 25 25 29 32 34 40 44
41 37 33 30 29 27 23 20 19 17 16 16 15 15 15 16 15 15 15 13 12 13 13 15 16 18 20 23 29 35 38 36 33 30 26 27 22 22 27 28 31 36 41 44 50
41 38 36 33 31 28 24 22 21 17 19 20 19 19 18 15 16 16 17 17 15 15 17 19 22 24 24 27 29 37 38 37 34 33 31 26 24 27 31 33 39 42 47 53 56

GFSSW_500_spd_027.txt.gz
Wind_Speed
23 22 22 22 21 20 18 16 17 19 19 19 19 19 19 19 17 14 16 13 13 14 16 19 16 18 33 31 21 20 20 10 14 24 27 29 25 22 19 14 9 5 7 7 10
24 23 24 23 20 17 14 17 14 15 17 18 18 18 18 17 14 11 12 12 13 14 15 18 23 27 36 30 24 20 10 15 19 20 20 19 19 19 12 8 6 6 6 8 8
25 24 24 24 23 16 14 18 14 12 13 18 17 14 14 15 12 12 12 16 17 18 17 20 26 32 38 29 26 20 14 23 23 26 23 19 10 10 8 6 7 7 5 6 6
23 24 26 28 25 20 20 17 14 14 11 12 14 14 16 13 13 14 19 22 22 22 24 27 26 26 33 32 17 15 18 24 20 24 21 11 7 5 1 3 6 5 3 5 6
18 16 18 15 19 19 22 18 16 14 10 13 13 16 16 14 14 21 24 28 30 30 29 27 24 17 25 21 19 24 18 16 22 19 7 4 4 4 2 3 1 3 4 4 6
19 21 21 18 20 20 21 18 15 16 17 15 17 18 13 13 20 25 30 33 36 36 35 32 21 12 11 14 11 11 7 9 9 10 6 3 3 5 2 6 5 5 3 4 6
20 24 20 17 16 16 20 18 18 17 18 18 14 15 13 18 24 29 30 31 23 31 28 22 26 23 18 12 12 12 13 12 10 6 1 1 4 8 4 6 5 8 10 8 8
19 11 11 12 14 18 21 21 19 17 17 17 15 15 16 19 20 23 23 19 11 8 13 14 21 15 19 16 12 10 7 9 7 5 1 3 7 7 5 6 7 6 10 14 14
14 12 12 14 18 22 21 18 19 20 19 20 20 21 21 23 18 18 19 20 23 20 20 19 15 16 18 18 18 13 9 4 7 6 1 5 10 11 10 5 7 11 12 11 17
10 15 19 17 19 20 20 21 23 20 20 23 22 22 21 22 21 21 21 21 21 21 19 19 18 19 13 14 8 12 4 3 14 4 3 6 10 13 15 5 9 14 16 21 22
15 21 24 20 22 21 21 23 23 25 25 29 30 23 25 24 23 22 21 20 18 21 20 20 20 18 14 5 3 17 16 16 13 3 5 7 11 18 18 14 16 18 20 23 27
13 9 20 25 21 25 29 33 35 31 28 24 26 24 21 19 19 17 17 16 14 17 19 18 12 10 8 6 5 14 18 16 13 6 8 9 15 18 19 18 20 17 19 23 25
14 15 21 26 29 32 33 32 32 29 25 24 23 22 19 16 16 16 14 11 14 15 16 10 11 7 5 5 8 12 14 14 15 8 8 11 17 20 18 17 18 17 20 21 22
19 22 29 30 33 34 33 32 30 27 26 23 22 20 18 16 14 13 11 12 11 14 9 8 7 7 8 5 11 11 8 12 12 12 13 15 18 24 22 20 22 25 22 26 25
25 33 35 37 38 36 35 32 30 27 26 22 20 18 17 14 13 12 11 11 9 9 7 5 5 5 5 7 11 11 13 14 15 15 17 17 18 23 28 31 26 28 27 26 25
36 40 42 40 38 37 33 30 28 25 23 22 18 15 13 11 9 8 8 8 9 9 4 8 7 10 11 11 14 16 17 17 19 20 17 15 19 30 31 30 31 22 22 30 36
42 43 41 39 36 33 31 29 26 21 20 17 14 11 9 7 6 7 7 8 8 8 9 8 9 10 9 9 10 10 10 10 10 9 10 12 21 24 23 29 35 34 37 42 39
43 42 41 39 36 33 31 28 23 19 17 15 11 7 5 4 6 7 7 7 7 8 8 8 9 6 4 4 4 7 7 8 8 10 9 14 21 23 24 29 34 36 39 38 34
44 42 41 38 35 32 29 26 23 17 15 10 7 5 4 5 6 6 4 9 8 7 5 2 3 2 2 6 7 7 9 11 11 12 11 16 22 26 24 31 36 33 39 40 43
43 42 39 37 35 32 28 24 20 13 9 5 5 6 6 6 7 7 6 8 9 7 6 2 1 2 3 4 6 9 10 12 13 14 10 13 24 30 29 30 36 43 46 48 44
43 41 39 36 34 31 27 22 15 10 6 6 7 6 5 7 8 7 8 9 9 7 5 4 2 1 3 4 4 10 16 19 19 21 20 13 22 28 31 36 37 41 46 43 34
42 41 38 37 34 30 26 21 15 12 8 8 7 8 6 8 7 7 8 8 8 7 6 6 3 2 2 5 7 11 16 19 20 22 22 22 14 23 30 34 37 34 35 39 32
41 41 40 38 34 30 26 17 14 12 9 9 7 7 7 8 8 9 8 9 9 9 10 5 3 3 5 7 8 15 23 27 30 28 19 23 19 24 29 27 31 31 34 28 31
43 42 41 38 34 30 24 16 15 14 11 9 9 10 8 9 9 9 9 10 11 11 9 6 7 9 11 13 15 19 22 28 33 33 30 22 25 21 31 30 25 24 24 29 35
44 41 38 36 34 28 23 20 16 14 13 10 13 13 11 10 10 10 11 13 12 11 9 8 9 12 14 17 18 21 24 27 30 33 35 30 28 32 28 28 26 28 29 33 37
44 42 38 36 31 27 25 21 17 16 13 13 15 17 15 14 10 8 12 13 13 13 12 12 13 14 17 19 21 23 26 29 29 32 32 32 28 34 32 25 26 30 34 38 41
44 42 40 35 32 30 25 21 21 17 16 17 20 20 13 11 14 14 15 17 19 16 14 16 17 19 19 22 25 27 28 31 34 35 37 35 34 31 27 28 31 34 37 41 45